Campo, CA

7:48 PM PDT on May 23, 2018 (GMT -0700)
Campo

Weather History for KCZZ - January, 2014

Change the Weather History Date:

Thursday, January 23, 2014

  Actual Average Record
Temperature  
Mean Temperature 49 °F 49 °F  
Max Temperature 68 °F 63 °F 77 °F (2003)
Min Temperature 30 °F 35 °F 19 °F (1966)
Degree Days  
Heating Degree Days 16 16  
Month to date heating degree days 273 379  
Since 1 July heating degree days 1396 1485  
Cooling Degree Days 0 0  
Month to date cooling degree days 0 0  
Year to date cooling degree days 0 0  
Moisture  
Dew Point 11 °F    
Average Humidity 28    
Maximum Humidity 47    
Minimum Humidity 9    
Precipitation  
Precipitation 0.00 in 0.09 in 1.29 in (2017)
Month to date precipitation 0.00 2.22  
Year to date precipitation 0.00 2.22  
Since 1 July precipitation 4.19  
Snow  
Snow 0.00 in - - ()
Month to date snowfall 0.0  
Year to date snowfall 0.0  
Snow Depth 0.00 in    
Sea Level Pressure  
Sea Level Pressure 29.94 in    
Wind  
Wind Speed 12 mph (ENE)    
Max Wind Speed 28 mph    
Max Gust Speed 33 mph    
T = Trace of Precipitation, MM = Missing Value Source: NWS Daily Summary

Daily Weather History Graph

Daily Weather History Graph

Search for Another Location

Airport or City:

Astronomy

Jan. 23, 2014 Rise Set
Actual Time 6:45 AM PST 5:10 PM PST
Civil Twilight 6:19 AM PST 5:36 PM PST
Nautical Twilight 5:49 AM PST 6:06 PM PST
Astronomical Twilight 5:20 AM PST 6:35 PM PST
Moon No Moon Rise 10:49 AM PST (1/23)
Length of Visible Light 11h 17m
Length of Day
10h 25m
Waning Gibbous, 54% of the Moon is Illuminated
Jan 23
Waning Gibbous
Jan 23
Last Quarter
Jan 30
New
Feb 6
First Quarter
Feb 14
Full

Hourly Weather History & Observations

Time (PST) Temp. Windchill Dew Point Humidity Pressure Visibility Wind Dir Wind Speed Gust Speed Precip Events Conditions
12:52 AM 34.0 °F 28.0 °F 14.0 °F 44% 29.88 in - ENE 6.9 mph - N/A   Unknown
1:52 AM 30.9 °F 26.2 °F 12.9 °F 47% 29.88 in - NE 4.6 mph - N/A   Unknown
2:52 AM 35.1 °F 29.3 °F 10.9 °F 37% 29.87 in - NE 6.9 mph - N/A   Unknown
3:52 AM 35.1 °F 30.1 °F 10.9 °F 37% 29.87 in - NE 5.8 mph - N/A   Unknown
4:52 AM 33.1 °F 26.9 °F 9.0 °F 37% 29.88 in - ENE 6.9 mph - N/A   Unknown
5:52 AM 35.1 °F 29.3 °F 9.0 °F 34% 29.91 in - NE 6.9 mph - N/A   Unknown
6:52 AM 34.0 °F 28.0 °F 9.0 °F 35% 29.94 in - ENE 6.9 mph - N/A   Unknown
7:52 AM 36.0 °F 32.1 °F 8.1 °F 31% 29.95 in - NE 4.6 mph - N/A   Unknown
8:52 AM 54.0 °F - 10.0 °F 17% 29.93 in - Calm Calm - N/A   Unknown
9:52 AM 66.0 °F - 10.9 °F 12% 29.92 in - ENE 21.9 mph 29.9 mph N/A   Unknown
10:52 AM 66.9 °F - 10.0 °F 11% 29.92 in - East 26.5 mph 31.1 mph N/A   Unknown
11:52 AM 66.9 °F - 8.1 °F 10% 29.91 in - NE 21.9 mph 31.1 mph N/A   Unknown
12:52 PM 68.0 °F - 8.1 °F 10% 29.89 in - ENE 21.9 mph - N/A   Unknown
1:52 PM 66.9 °F - 8.1 °F 10% 29.90 in - ENE 21.9 mph 29.9 mph N/A   Unknown
2:52 PM 64.9 °F - 10.9 °F 12% 29.90 in - ENE 23.0 mph - N/A   Unknown
3:52 PM 63.0 °F - 9.0 °F 12% 29.92 in - ENE 24.2 mph 29.9 mph N/A   Unknown
4:52 PM 60.1 °F - 10.0 °F 14% 29.95 in - ENE 11.5 mph 25.3 mph N/A   Unknown
5:52 PM 57.9 °F - 10.9 °F 16% 29.97 in - ENE 12.7 mph - N/A   Unknown
6:52 PM 57.0 °F - 12.0 °F 17% 30.00 in - East 17.3 mph - N/A   Unknown
7:52 PM 57.0 °F - 12.0 °F 17% 30.02 in - East 17.3 mph 23.0 mph N/A   Unknown
8:52 PM 57.9 °F - 12.0 °F 16% 30.02 in - ENE 15.0 mph - N/A   Unknown
9:52 PM 57.9 °F - 14.0 °F 18% 30.02 in - ENE 13.8 mph - N/A   Unknown
10:52 PM 59.0 °F - 14.0 °F 17% 30.03 in - ENE 19.6 mph - N/A   Unknown
11:52 PM 59.0 °F - 12.9 °F 16% 30.04 in - East 19.6 mph - N/A   Unknown